Time,TemperatureF,DewpointF,PressureIn,WindDirection,WindDirectionDegrees,WindSpeedMPH,WindSpeedGustMPH,Humidity,HourlyPrecipIn,Conditions,Clouds,dailyrainin,SoftwareType,DateUTC
2013-05-14 22:16:00,83.9,54.1,29.64,WSW,257,5.0,5.0,36,0.00,CLR,CLR,0.00,WeatherDisplay:10.37,2013-05-15 03:16:00,
2013-05-14 22:17:00,83.8,54.7,29.64,WSW,246,4.0,4.0,37,0.00,CLR,CLR,0.00,WeatherDisplay:10.37,2013-05-15 03:17:00,
2013-05-14 22:20:00,83.6,54.6,29.65,West,262,6.0,6.0,37,0.00,CLR,CLR,0.00,WeatherDisplay:10.37,2013-05-15 03:20:00,
2013-05-14 22:22:00,83.4,54.4,29.65,WSW,252,4.6,4.6,37,0.00,CLR,CLR,0.00,WeatherDisplay:10.37,2013-05-15 03:22:00,
2013-05-14 22:27:00,83.0,54.0,29.65,WSW,252,5.0,5.0,37,0.00,CLR,CLR,0.00,WeatherDisplay:10.37,2013-05-15 03:27:00,
2013-05-14 22:32:00,82.6,54.4,29.65,WSW,256,4.6,4.6,38,0.00,CLR,CLR,0.00,WeatherDisplay:10.37,2013-05-15 03:32:00,
2013-05-14 22:37:00,82.1,54.7,29.65,WSW,244,3.5,3.5,39,0.00,CLR,CLR,0.00,WeatherDisplay:10.37,2013-05-15 03:37:00,
2013-05-14 22:45:00,81.6,54.2,29.64,WSW,242,4.6,4.6,39,0.00,CLR,CLR,0.00,WeatherDisplay:10.37,2013-05-15 03:45:00,
2013-05-14 22:50:00,81.5,54.2,29.65,WSW,257,5.0,5.0,39,0.00,CLR,CLR,0.00,WeatherDisplay:10.37,2013-05-15 03:50:00,
2013-05-14 22:55:00,81.2,54.6,29.67,North,350,2.3,2.3,40,0.00,CLR,CLR,0.00,WeatherDisplay:10.37,2013-05-15 03:55:00,
2013-05-14 23:00:00,80.8,54.3,29.67,NW,311,0.0,2.0,40,0.00,CLR,CLR,0.00,WeatherDisplay:10.37,2013-05-15 04:00:00,
2013-05-14 23:01:00,80.8,54.2,29.67,WNW,293,1.2,1.2,40,0.00,CLR,CLR,0.00,WeatherDisplay:10.37,2013-05-15 04:01:00,
2013-05-14 23:02:00,80.7,54.1,29.67,WNW,293,1.2,1.2,40,0.00,CLR,CLR,0.00,WeatherDisplay:10.37,2013-05-15 04:02:00,
2013-05-14 23:03:00,80.6,54.0,29.67,WNW,292,2.0,2.0,40,0.00,CLR,CLR,0.00,WeatherDisplay:10.37,2013-05-15 04:03:00,
2013-05-14 23:05:00,80.5,54.0,29.67,WNW,296,1.0,3.0,40,0.00,CLR,CLR,0.00,WeatherDisplay:10.37,2013-05-15 04:05:00,
2013-05-14 23:10:00,80.4,53.9,29.67,WNW,284,4.0,4.0,40,0.00,CLR,CLR,0.00,WeatherDisplay:10.37,2013-05-15 04:10:00,
2013-05-14 23:15:00,80.5,54.0,29.67,West,260,2.0,5.0,40,0.00,CLR,CLR,0.00,WeatherDisplay:10.37,2013-05-15 04:15:00,
2013-05-14 23:20:00,80.7,54.2,29.67,WSW,253,0.0,7.0,40,0.00,CLR,CLR,0.00,WeatherDisplay:10.37,2013-05-15 04:20:00,
2013-05-14 23:25:00,80.5,54.0,29.67,WSW,255,2.0,3.0,40,0.00,CLR,CLR,0.00,WeatherDisplay:10.37,2013-05-15 04:25:00,
2013-05-14 23:30:00,80.6,54.0,29.67,WSW,258,2.0,7.0,40,0.00,CLR,CLR,0.00,WeatherDisplay:10.37,2013-05-15 04:30:00,
2013-05-14 23:35:00,80.7,54.1,29.67,WSW,256,1.0,3.0,40,0.00,CLR,CLR,0.00,WeatherDisplay:10.37,2013-05-15 04:35:00,
2013-05-14 23:40:00,80.5,54.0,29.67,WSW,252,0.0,2.0,40,0.00,CLR,CLR,0.00,WeatherDisplay:10.37,2013-05-15 04:40:00,
2013-05-14 23:45:00,80.3,55.1,29.67,SW,235,0.0,3.0,42,0.00,CLR,CLR,0.00,WeatherDisplay:10.37,2013-05-15 04:45:00,
2013-05-14 23:50:00,80.0,54.2,29.67,WSW,246,1.0,6.0,41,0.00,CLR,CLR,0.00,WeatherDisplay:10.37,2013-05-15 04:50:00,
2013-05-14 23:55:00,80.0,54.2,29.67,WSW,257,1.0,7.0,41,0.00,CLR,CLR,0.00,WeatherDisplay:10.37,2013-05-15 04:55:00,